7 * 24
多渠道服务支持
TIANQI-8 是中国发射的一颗气象卫星,属于风云系列,主要用于气象观测和天气预报。该卫星搭载多种遥感仪器,能够实时监测地球大气状况、云层分布和气候变化,为气象研究和灾害预警提供重要数据支持。TIANQI-8 的发射提升了中国在气象监测和环境预警方面的能力,对提高天气预报精度和应对极端气候事件具有重要意义。
中国
(CN)
| 数据来源 | 国际轨道数据 |
| 星历时间: | 2024-06-14T16:23:47+0800 轨道信息已过期501天 |
| 半长轴: | 6563.825km |
| 偏心率: | 0.0012516 |
| 轨道倾角: | 97.421° |
| 近地点辐角 | 268.834° |
| 升交点赤经 | 285.555° |
| 平近点角 | 91.153° |
| 近地点: | 177.474km |
| 远地点: | 193.906km |
| 周期: | 88.205分钟 |
| 每日圈数: | 16.325533 |